This is the latest recevied weather packets stored in our database for station/object HB9SZU-7. If no packets are shown the sender has not sent any weather packets the latest 10 day(s).
| Time | Temp. | Humidity | Pressure | Rain* | Wind** | Luminosity | Snow |
|---|---|---|---|---|---|---|---|
| 1777720910 | 18.33° C | 51% | 943.6 hPa | - | - | - | - |
| 1777719950 | 17.78° C | 52% | 944 hPa | - | - | - | - |
| 1777718990 | 17.22° C | 52% | 944.2 hPa | - | - | - | - |
| 1777718029 | 17.22° C | 51% | 944.2 hPa | - | - | - | - |
| 1777717070 | 17.22° C | 51% | 944.4 hPa | - | - | - | - |
| 1777716110 | 17.22° C | 51% | 944.4 hPa | - | - | - | - |
| 1777715150 | 17.22° C | 52% | 944.6 hPa | - | - | - | - |
| 1777714190 | 16.67° C | 52% | 944.8 hPa | - | - | - | - |
| 1777713229 | 16.11° C | 54% | 945 hPa | - | - | - | - |
| 1777712270 | 16.11° C | 53% | 945 hPa | - | - | - | - |
| 1777711309 | 16.11° C | 55% | 945.1 hPa | - | - | - | - |
| 1777710350 | 15.56° C | 56% | 945 hPa | - | - | - | - |
| 1777709390 | 15.56° C | 57% | 945.1 hPa | - | - | - | - |
| 1777708429 | 14.44° C | 59% | 945.2 hPa | - | - | - | - |
| 1777707469 | 13.89° C | 60% | 945.3 hPa | - | - | - | - |
| 1777706509 | 13.33° C | 61% | 945.3 hPa | - | - | - | - |
| 1777705550 | 12.78° C | 62% | 945.3 hPa | - | - | - | - |
| 1777704590 | 12.22° C | 63% | 945.3 hPa | - | - | - | - |
| 1777703630 | 11.67° C | 66% | 945.3 hPa | - | - | - | - |
| 1777702669 | 10.56° C | 67% | 945.3 hPa | - | - | - | - |
| 1777701709 | 9.44° C | 67% | 945.3 hPa | - | - | - | - |
| 1777700750 | 9.44° C | 68% | 945.4 hPa | - | - | - | - |
| 1777699789 | 8.89° C | 67% | 945.4 hPa | - | - | - | - |
| 1777698829 | 8.89° C | 68% | 945.3 hPa | - | - | - | - |
| 1777697870 | 8.89° C | 68% | 945.3 hPa | - | - | - | - |
* Rain since midnight (hover to see other rain measurements)
** Current wind speed in m/s (hover to see current wind gust speed)